Wetbulb
57.03 57.26 57.33 57.43 57.39 57.67 57.76 57.99 58.32 58.97 59.13 59.46 59.67 59.41 59.41 59.60 58.79 52.05 46.19 54.57 54.11 63.54 63.38 51.09 52.14 51.12 49.97 48.11 46.01 42.82 38.34 35.71 37.05 39.30 42.65 41.73 43.39 45.80 48.11 48.20 48.03 48.16 47.56 51.09 56.68
56.87 57.05 57.19 57.27 57.33 57.41 57.60 57.94 58.33 58.68 58.98 59.07 59.11 59.32 59.23 59.20 51.21 48.52 59.66 64.32 65.60 65.31 49.90 49.98 48.33 50.03 46.60 44.04 43.78 40.96 36.56 37.82 40.50 42.23 40.41 41.18 42.67 44.97 45.70 45.57 45.40 49.05 52.72 55.78 63.48
56.56 56.78 56.84 56.89 56.99 57.24 57.57 57.96 58.23 58.84 58.93 58.82 58.89 59.10 59.26 57.31 43.69 46.04 65.25 66.30 66.15 61.69 51.41 51.13 50.05 48.24 42.85 42.54 40.79 37.92 38.44 41.08 42.91 42.99 42.64 43.38 42.13 43.84 44.47 41.51 44.84 48.75 50.47 54.41 59.18
56.28 56.70 56.72 56.68 56.64 56.97 57.29 57.81 58.08 58.54 58.91 58.60 58.66 59.05 59.57 51.49 37.62 46.78 66.08 66.87 67.21 55.76 51.32 49.08 46.95 42.77 40.52 39.67 41.74 43.12 41.53 43.24 42.99 45.25 43.03 42.06 44.04 43.85 42.76 45.31 47.13 51.65 54.23 54.43 57.54
56.17 56.34 56.45 56.45 56.62 56.88 57.19 57.51 57.82 58.10 58.03 58.11 58.86 59.52 52.63 47.15 47.25 52.24 66.46 65.91 61.42 53.30 48.90 48.01 44.57 41.27 42.40 39.48 41.27 41.40 41.80 43.43 42.70 41.61 42.13 44.15 42.12 42.03 42.96 46.83 47.11 51.66 53.94 54.31 54.67
56.03 56.13 56.24 56.41 56.65 56.78 56.94 56.96 56.80 57.00 57.51 58.18 59.18 59.55 49.00 43.65 50.88 53.27 50.58 50.13 50.31 48.24 45.26 45.83 46.15 43.44 41.71 40.82 40.65 41.83 41.95 41.74 42.44 43.92 45.94 42.19 42.23 43.80 46.74 47.11 46.63 51.82 51.56 53.29 55.00
55.91 55.72 56.07 56.52 56.83 56.95 56.98 56.56 56.15 56.67 57.79 58.88 59.93 55.19 48.14 46.65 54.51 53.70 50.02 47.53 48.54 48.97 46.91 47.15 46.72 45.35 43.48 41.43 43.43 42.13 39.01 42.15 42.60 40.89 41.05 42.55 41.68 43.38 46.35 46.15 45.54 49.82 51.67 53.50 55.13
55.53 55.48 55.85 56.50 56.96 57.16 57.34 56.87 56.62 57.13 58.36 59.45 59.79 50.76 46.98 53.79 54.27 52.09 49.88 49.91 49.69 49.16 48.82 48.79 46.89 45.88 43.15 43.12 42.97 40.35 39.02 36.42 42.38 41.78 43.19 42.12 37.31 43.41 48.67 44.87 44.13 48.95 52.22 53.57 54.45
55.54 55.22 55.54 56.22 56.86 57.25 56.93 56.32 57.06 58.17 58.91 59.04 49.97 45.98 45.60 56.23 50.86 51.85 50.79 49.91 50.57 49.97 49.99 52.21 47.79 42.95 43.44 39.76 37.48 37.74 35.29 35.36 39.18 42.77 41.39 41.07 37.42 45.26 48.54 45.73 43.94 48.64 50.81 52.73 53.05
55.48 55.05 55.01 55.64 56.34 56.21 55.34 55.61 57.19 56.72 57.76 57.91 52.07 45.30 48.44 49.18 51.52 51.94 51.23 51.30 49.50 49.14 48.43 47.34 42.74 39.99 38.31 37.65 33.36 34.34 35.10 36.12 36.60 42.04 41.47 39.14 39.99 44.98 46.92 45.98 43.77 49.31 50.18 49.96 50.90
55.38 54.87 54.87 55.18 55.78 55.24 51.78 48.94 47.30 46.52 47.01 45.13 46.82 48.00 48.97 52.27 50.76 49.14 51.58 50.13 49.05 46.78 41.44 43.00 40.22 36.72 37.41 38.92 39.75 39.73 37.81 36.69 38.87 41.73 39.62 38.16 39.61 42.90 44.97 46.05 46.87 47.25 47.92 49.79 50.78
55.00 54.91 54.99 55.01 55.34 54.63 49.62 49.41 49.01 48.20 45.51 48.85 49.58 49.60 51.62 51.00 48.62 49.86 51.24 46.00 45.07 41.30 42.02 40.88 38.63 40.92 43.12 42.49 42.02 39.98 37.55 36.03 39.09 42.70 41.20 38.97 38.97 42.45 44.69 44.07 44.98 47.15 47.98 47.93 48.62
54.24 54.32 54.79 54.85 54.50 51.51 49.38 51.09 51.76 49.77 43.55 48.43 49.76 49.66 50.08 51.49 47.72 47.82 48.50 46.01 43.42 42.17 40.22 37.97 40.57 44.66 43.58 40.75 40.95 37.61 37.36 36.21 36.84 40.04 40.10 37.99 36.76 39.91 44.21 45.55 46.62 46.44 46.70 47.34 48.09
53.65 53.83 54.10 54.04 51.69 48.66 50.92 52.55 51.15 50.28 41.82 47.92 48.58 51.19 49.10 47.68 46.04 50.54 49.61 46.68 43.90 40.94 41.06 39.76 43.57 43.56 40.70 40.79 40.11 34.92 40.85 40.69 39.41 35.87 31.99 36.64 28.16 35.99 40.60 42.10 44.02 44.09 44.41 45.34 46.51
53.34 53.83 53.79 52.88 48.21 50.15 52.42 50.91 50.93 52.35 31.27 47.46 47.22 49.41 46.56 45.54 46.26 47.74 49.77 47.70 42.35 42.50 43.48 41.32 42.02 40.70 40.32 40.81 42.02 39.33 42.04 38.85 38.21 33.57 32.36 33.68 30.53 32.74 39.10 39.02 42.08 43.98 45.03 45.25 46.26
52.90 53.36 52.97 50.20 47.95 50.88 51.34 49.97 52.36 43.07 35.15 43.61 45.77 43.89 42.99 44.43 45.13 47.43 48.20 50.18 47.66 44.67 44.52 42.56 46.40 43.22 42.40 44.08 43.87 43.39 39.16 36.79 33.37 31.64 27.44 30.88 31.45 30.28 34.95 39.00 41.03 44.15 45.82 46.08 45.90
52.51 52.58 50.51 51.04 47.70 49.73 50.88 49.63 40.80 37.29 47.53 43.34 42.80 44.26 42.07 42.69 44.05 45.59 45.05 43.52 40.66 36.36 37.05 42.62 42.98 45.29 45.68 41.34 42.81 39.90 34.07 27.89 26.83 26.06 26.79 33.13 30.61 32.81 37.86 41.36 43.02 43.40 44.33 45.08 45.18
51.30 51.09 50.94 52.02 49.30 51.60 49.79 44.36 34.18 43.56 42.78 47.14 46.06 43.41 41.82 45.95 44.31 44.84 43.16 41.17 44.09 41.56 37.14 36.01 35.69 42.79 45.85 41.30 37.61 34.76 33.95 28.58 23.83 24.09 26.90 32.98 29.12 33.72 40.18 43.12 44.88 44.83 44.48 44.86 44.04
50.30 51.92 53.27 54.51 53.62 50.82 45.32 36.12 38.34 42.62 45.95 45.26 44.49 42.03 41.55 45.01 43.87 43.08 41.56 41.87 43.46 42.07 36.86 35.08 36.76 44.27 46.34 44.02 41.36 36.14 32.27 34.16 29.43 27.16 25.14 28.73 32.92 37.85 42.05 42.52 43.65 43.57 44.14 43.21 43.30
49.39 51.67 50.87 51.64 52.11 49.26 41.36 39.71 42.81 47.76 47.51 46.31 40.08 43.10 39.08 41.87 41.93 40.80 41.21 45.37 44.18 45.26 42.30 38.77 34.27 41.58 45.13 44.88 42.06 38.09 39.09 30.19 28.63 24.53 22.86 26.36 27.67 30.42 35.88 39.68 41.55 41.92 42.25 43.23 43.41
48.24 47.70 51.62 50.70 51.21 47.32 40.29 40.84 45.44 48.79 48.28 45.23 42.25 41.05 41.56 41.13 41.31 40.74 41.89 44.53 46.23 44.92 43.43 38.80 36.66 37.81 39.55 36.82 34.87 35.39 33.07 31.41 30.24 27.45 23.67 22.34 26.62 35.26 36.65 37.61 37.66 41.25 43.02 42.97 43.25
44.82 43.26 51.61 50.00 43.39 38.61 38.77 42.81 46.47 47.92 48.20 47.20 45.76 44.27 42.06 42.21 40.49 41.09 42.33 43.41 47.82 45.50 39.69 39.30 35.17 31.46 33.72 38.96 40.26 37.32 33.66 31.88 26.48 26.97 26.37 23.93 26.02 38.81 38.53 39.99 40.94 41.44 43.80 43.25 42.83
43.80 44.26 50.88 49.30 37.94 37.66 42.35 45.14 46.48 45.94 45.46 45.24 44.14 44.75 43.88 40.22 36.00 41.93 43.43 46.54 47.03 44.61 39.97 38.13 31.46 26.66 30.66 33.88 37.24 36.51 36.70 34.86 30.87 28.14 27.03 23.38 27.72 40.50 40.33 39.74 40.37 39.33 41.14 41.84 43.32
43.75 40.78 44.16 43.43 41.75 40.11 39.28 40.95 42.73 47.63 46.07 45.45 43.93 44.34 41.63 39.31 40.19 38.94 42.31 44.84 46.94 45.38 47.44 41.43 30.51 31.03 27.69 30.90 33.70 33.00 36.41 36.32 32.06 23.07 27.76 28.13 30.64 35.90 38.24 38.83 40.16 40.65 41.34 41.60 42.47
42.35 39.65 41.58 36.90 38.78 40.10 39.52 41.45 41.55 41.92 45.19 44.19 41.77 42.74 40.36 36.23 37.45 37.39 41.08 42.46 43.98 46.57 41.91 37.37 32.18 31.43 33.28 34.65 36.78 36.66 36.43 36.07 32.12 31.99 28.25 31.11 31.19 35.43 38.11 39.20 40.47 41.51 41.87 42.15 42.43
41.39 39.77 41.34 38.81 40.37 40.11 39.83 39.62 41.55 42.81 41.11 40.81 40.78 43.41 40.87 37.29 38.59 37.86 38.60 36.96 37.94 40.27 38.58 37.18 29.90 33.63 33.13 37.27 37.13 35.25 36.57 36.09 35.26 35.84 33.92 36.18 35.05 39.88 41.38 41.56 40.98 40.91 40.51 40.81 41.89
42.37 42.62 42.68 39.38 39.73 37.63 38.93 40.88 42.79 42.23 43.04 44.18 43.42 40.81 38.87 41.38 43.19 42.01 41.14 40.70 38.74 37.86 36.24 34.99 32.34 30.05 27.50 34.02 32.63 27.61 33.74 35.39 36.26 39.04 37.08 32.50 36.20 39.86 39.68 40.49 40.53 40.41 40.40 40.98 42.20
MSLP
1015.18 1015.02 1014.83 1014.66 1014.49 1014.32 1014.16 1013.94 1013.68 1013.35 1013.01 1012.64 1012.30 1012.05 1011.85 1011.57 1011.11 1011.11 1010.46 1009.59 1009.31 1009.19 1009.24 1009.13 1008.98 1009.19 1009.21 1009.78 1010.11 1010.66 1011.87 1012.37 1011.48 1010.84 1010.40 1010.11 1010.12 1010.10 1009.85 1010.09 1010.72 1011.20 1011.74 1012.47 1012.58
1015.13 1014.97 1014.80 1014.65 1014.51 1014.30 1014.06 1013.81 1013.52 1013.21 1012.85 1012.47 1012.13 1011.90 1011.68 1011.49 1011.13 1010.38 1009.18 1009.09 1009.07 1009.18 1009.21 1009.27 1009.26 1009.25 1009.78 1010.10 1010.42 1010.92 1011.88 1011.60 1010.86 1010.22 1010.04 1010.06 1009.89 1010.03 1010.33 1010.79 1012.10 1012.40 1012.77 1012.84 1012.94
1015.07 1014.87 1014.71 1014.57 1014.41 1014.21 1013.91 1013.63 1013.35 1013.02 1012.68 1012.33 1011.98 1011.71 1011.45 1011.31 1010.84 1009.62 1008.77 1008.95 1009.14 1009.19 1009.25 1009.36 1009.35 1009.41 1009.87 1010.13 1010.44 1010.81 1011.09 1010.79 1010.28 1009.93 1009.84 1010.07 1010.28 1010.32 1010.80 1011.68 1011.81 1012.60 1013.24 1013.49 1013.52
1015.07 1014.84 1014.63 1014.47 1014.29 1014.10 1013.82 1013.49 1013.19 1012.90 1012.59 1012.27 1011.91 1011.53 1011.17 1011.05 1010.60 1009.14 1008.85 1009.03 1009.20 1009.23 1009.33 1009.40 1009.42 1009.70 1010.10 1010.31 1010.28 1010.47 1010.43 1010.36 1010.01 1009.92 1010.04 1010.19 1010.27 1010.82 1011.08 1011.23 1011.35 1012.23 1012.59 1013.43 1013.82
1015.06 1014.81 1014.59 1014.36 1014.15 1013.94 1013.68 1013.37 1013.09 1012.83 1012.51 1012.22 1011.80 1011.38 1011.06 1010.72 1009.86 1009.07 1008.79 1008.95 1009.26 1009.31 1009.35 1009.31 1009.44 1009.83 1010.09 1010.21 1010.25 1010.33 1010.31 1010.40 1010.14 1010.11 1010.16 1010.25 1010.66 1011.10 1011.48 1011.61 1011.98 1012.93 1013.66 1014.17 1014.68
1015.04 1014.79 1014.53 1014.24 1013.98 1013.74 1013.54 1013.26 1012.95 1012.70 1012.44 1012.22 1011.83 1011.33 1011.11 1010.31 1008.98 1008.97 1008.80 1008.79 1008.89 1009.06 1009.18 1009.17 1009.36 1009.58 1009.87 1010.12 1010.19 1010.28 1010.41 1010.81 1010.84 1010.67 1010.60 1010.69 1011.24 1011.35 1011.95 1012.38 1013.15 1013.91 1014.65 1015.19 1015.63
1014.97 1014.70 1014.42 1014.10 1013.79 1013.49 1013.22 1012.97 1012.73 1012.51 1012.35 1012.15 1011.81 1011.55 1011.03 1009.60 1008.76 1008.89 1008.81 1008.71 1008.68 1008.74 1008.88 1008.92 1009.09 1009.53 1009.97 1010.31 1010.40 1010.58 1011.07 1011.36 1011.57 1011.37 1011.31 1011.37 1012.27 1012.98 1013.66 1013.10 1013.75 1014.83 1015.53 1016.00 1016.42
1014.95 1014.60 1014.25 1013.92 1013.58 1013.25 1012.92 1012.62 1012.35 1012.17 1012.11 1011.98 1011.81 1011.58 1010.64 1008.86 1008.74 1008.61 1008.58 1008.55 1008.55 1008.54 1008.64 1008.69 1008.91 1009.51 1010.13 1010.58 1011.08 1011.68 1012.03 1012.63 1012.41 1012.04 1012.12 1012.15 1013.48 1014.18 1014.11 1014.33 1014.52 1015.03 1015.96 1016.69 1017.07
1014.94 1014.56 1014.17 1013.79 1013.43 1013.05 1012.59 1012.27 1011.93 1011.89 1011.95 1011.87 1011.81 1011.44 1010.28 1008.82 1008.71 1008.47 1008.39 1008.58 1008.45 1008.50 1008.61 1008.79 1009.28 1010.54 1010.79 1011.63 1012.47 1012.98 1013.28 1013.27 1012.95 1012.97 1013.06 1013.51 1015.21 1015.55 1015.41 1015.06 1015.19 1015.96 1016.61 1017.14 1017.63
1014.88 1014.47 1014.07 1013.67 1013.28 1012.82 1012.11 1011.76 1011.72 1011.77 1011.96 1011.86 1011.66 1011.55 1010.16 1009.59 1009.07 1008.54 1008.31 1008.48 1008.64 1008.82 1009.27 1009.67 1010.81 1011.50 1012.26 1012.59 1013.33 1013.58 1013.75 1013.76 1013.72 1014.28 1014.62 1015.70 1017.01 1016.93 1016.25 1015.59 1015.71 1016.32 1017.05 1017.72 1018.08
1014.80 1014.34 1013.87 1013.45 1012.97 1012.62 1011.78 1011.79 1012.30 1012.10 1011.82 1011.54 1011.29 1010.91 1010.14 1009.47 1009.02 1008.59 1008.35 1008.56 1009.06 1009.65 1010.45 1010.88 1011.68 1012.09 1012.47 1012.59 1012.80 1013.28 1013.60 1013.84 1013.98 1014.56 1015.64 1017.25 1017.80 1017.98 1017.57 1017.01 1017.01 1017.44 1017.93 1018.38 1018.68
1014.79 1014.22 1013.73 1013.24 1012.76 1012.48 1012.30 1012.57 1012.63 1012.70 1012.06 1010.95 1010.75 1010.41 1009.82 1009.54 1009.30 1008.74 1008.53 1009.09 1009.63 1010.48 1010.86 1011.44 1011.89 1012.03 1012.14 1012.57 1012.90 1013.36 1013.89 1014.20 1014.42 1014.86 1016.00 1017.76 1018.48 1018.78 1018.70 1018.69 1018.42 1018.34 1018.82 1019.07 1019.27
1014.69 1014.11 1013.59 1013.06 1012.59 1012.48 1012.77 1012.50 1012.32 1012.37 1012.31 1010.81 1010.18 1009.73 1009.29 1009.47 1009.23 1008.80 1008.74 1009.33 1010.01 1010.70 1011.30 1011.69 1011.90 1011.74 1012.07 1012.80 1013.13 1013.73 1014.01 1014.44 1014.96 1015.47 1016.36 1017.60 1019.00 1019.31 1019.41 1019.43 1019.19 1019.30 1019.37 1019.50 1019.59
1014.53 1013.94 1013.38 1012.78 1012.77 1013.10 1012.65 1012.25 1011.94 1011.95 1012.16 1010.82 1009.81 1009.00 1009.00 1009.01 1009.13 1008.70 1008.82 1009.52 1010.25 1010.94 1011.38 1011.84 1011.68 1011.92 1012.33 1012.73 1013.20 1013.85 1014.08 1014.70 1015.41 1016.38 1017.16 1017.67 1019.48 1019.78 1019.80 1019.88 1019.90 1019.91 1019.87 1019.84 1019.81
1014.47 1013.89 1013.39 1012.86 1013.01 1012.86 1012.46 1011.93 1011.67 1011.82 1012.04 1010.61 1009.41 1008.62 1008.91 1009.36 1009.37 1009.17 1009.09 1009.47 1010.52 1011.24 1011.75 1012.31 1012.11 1012.17 1012.53 1012.92 1013.21 1014.08 1014.49 1015.52 1016.17 1017.25 1017.89 1018.25 1019.07 1019.49 1019.73 1019.95 1019.89 1019.91 1020.07 1020.15 1020.25
1014.25 1013.75 1013.46 1013.19 1013.10 1012.43 1012.07 1011.75 1011.86 1012.39 1011.65 1010.43 1009.57 1009.25 1009.60 1009.71 1009.74 1009.76 1009.76 1010.03 1010.90 1011.85 1012.30 1012.55 1012.30 1012.40 1012.63 1013.14 1013.56 1014.39 1015.39 1016.62 1017.70 1018.51 1019.24 1018.99 1019.35 1019.42 1019.31 1019.06 1019.38 1019.63 1019.89 1020.30 1020.43
1013.88 1013.41 1013.32 1013.00 1012.94 1012.30 1011.99 1012.28 1013.16 1012.76 1011.79 1011.38 1010.55 1010.27 1010.41 1010.66 1010.54 1010.52 1010.86 1011.53 1012.25 1013.05 1013.59 1013.29 1013.14 1012.89 1012.86 1013.53 1014.22 1015.18 1016.62 1018.23 1019.38 1020.13 1020.26 1019.57 1019.68 1018.53 1018.26 1018.30 1018.49 1018.94 1019.91 1020.26 1020.54
1013.70 1013.30 1013.28 1012.97 1012.66 1012.35 1012.68 1013.41 1013.62 1013.08 1012.33 1011.71 1011.35 1011.21 1011.64 1011.66 1011.46 1011.53 1012.00 1012.82 1013.22 1013.69 1014.60 1014.52 1014.23 1013.84 1013.79 1014.16 1014.99 1016.23 1017.33 1019.07 1020.36 1021.37 1020.94 1019.99 1019.35 1018.29 1018.11 1018.15 1018.51 1019.21 1019.80 1020.24 1020.58
1013.38 1013.25 1013.46 1012.86 1012.51 1012.63 1013.57 1014.37 1014.21 1013.40 1012.73 1012.38 1012.13 1012.49 1012.79 1012.65 1012.67 1012.76 1013.27 1013.74 1014.06 1014.32 1014.88 1015.20 1015.10 1014.66 1014.59 1014.67 1015.45 1016.88 1018.12 1019.25 1020.57 1021.99 1021.96 1020.64 1019.59 1018.78 1018.73 1018.87 1019.22 1019.72 1020.00 1020.29 1020.55
1014.65 1014.32 1013.91 1013.02 1012.73 1013.25 1014.34 1014.99 1014.38 1013.49 1012.83 1012.65 1013.09 1013.43 1013.74 1013.76 1013.68 1013.77 1014.22 1014.46 1014.63 1014.89 1015.05 1015.86 1015.97 1015.77 1015.48 1015.47 1016.27 1017.02 1018.61 1020.01 1021.52 1022.73 1022.88 1021.70 1020.89 1020.08 1019.92 1019.70 1019.83 1020.10 1020.21 1020.36 1020.46
1015.25 1014.90 1013.71 1013.17 1013.10 1014.38 1015.80 1015.57 1014.59 1013.46 1013.07 1013.14 1013.43 1013.86 1014.33 1014.64 1014.71 1014.79 1014.93 1015.10 1015.05 1015.42 1015.59 1016.45 1016.85 1017.12 1016.77 1017.37 1017.86 1018.36 1019.55 1021.29 1022.38 1023.35 1023.62 1023.08 1021.78 1020.69 1020.48 1020.09 1019.93 1020.02 1020.33 1020.58 1020.69
1016.37 1016.03 1014.12 1013.45 1014.84 1016.55 1016.72 1016.04 1014.97 1014.12 1013.53 1013.46 1013.74 1014.18 1014.69 1015.03 1015.36 1015.52 1015.75 1016.03 1015.91 1015.96 1016.86 1017.66 1018.34 1018.69 1018.73 1018.69 1018.71 1019.18 1020.64 1021.78 1023.37 1024.19 1024.39 1024.00 1021.76 1020.83 1020.70 1020.37 1020.21 1020.39 1020.51 1020.60 1020.73
1018.29 1017.35 1014.82 1014.40 1016.80 1017.93 1017.16 1016.33 1015.51 1014.84 1014.32 1014.12 1014.32 1014.51 1014.87 1015.55 1016.13 1016.16 1016.31 1016.64 1016.58 1016.98 1017.65 1018.20 1019.57 1020.08 1019.97 1019.96 1019.54 1020.13 1021.06 1021.98 1023.31 1024.20 1024.32 1024.24 1021.93 1020.92 1020.91 1020.81 1020.73 1020.85 1020.87 1020.82 1020.66
1019.13 1018.96 1017.84 1017.76 1018.96 1018.73 1018.34 1017.33 1016.29 1015.33 1014.97 1015.00 1015.11 1015.12 1015.50 1016.17 1016.61 1016.83 1017.05 1017.29 1017.28 1017.68 1018.19 1018.59 1020.29 1020.70 1020.81 1020.47 1020.58 1020.94 1021.29 1021.91 1022.95 1024.08 1023.89 1023.01 1021.83 1021.16 1021.12 1021.10 1021.09 1021.10 1020.82 1020.70 1020.58
1020.46 1021.29 1021.12 1020.69 1020.12 1019.71 1019.11 1018.15 1017.19 1016.30 1015.59 1015.54 1015.84 1015.94 1016.17 1016.78 1017.22 1017.49 1017.61 1017.79 1018.06 1018.38 1018.93 1019.77 1020.99 1021.31 1021.12 1020.94 1020.99 1021.02 1021.23 1021.79 1022.50 1022.69 1023.07 1022.06 1021.86 1021.34 1021.25 1021.26 1021.12 1020.89 1020.78 1020.78 1020.43
1021.66 1021.92 1021.61 1021.29 1020.90 1020.11 1019.58 1018.87 1018.03 1017.20 1016.61 1016.12 1016.29 1016.59 1016.75 1017.08 1017.37 1017.71 1018.06 1018.41 1018.57 1019.11 1019.90 1020.90 1021.79 1022.18 1022.01 1021.61 1021.44 1021.26 1021.04 1021.07 1021.31 1021.44 1021.76 1021.63 1021.41 1021.10 1021.08 1021.01 1021.00 1020.72 1020.68 1020.52 1020.18
1022.20 1022.09 1021.88 1021.90 1021.35 1020.75 1020.01 1019.28 1018.57 1018.14 1017.03 1016.59 1016.69 1017.09 1017.32 1017.39 1017.56 1017.78 1018.10 1018.52 1019.01 1019.73 1020.93 1021.85 1022.82 1023.49 1023.09 1022.45 1021.96 1021.55 1020.78 1020.83 1020.77 1021.00 1021.32 1021.61 1021.32 1021.14 1021.04 1020.86 1020.67 1020.46 1020.48 1020.32 1020.06
Wind_Speed
8 8 7 8 8 8 7 7 8 9 9 11 11 11 11 11 11 1 2 5 2 4 1 4 2 5 3 4 4 3 6 1 4 3 2 0 5 1 3 5 5 5 4 6 4
8 8 7 7 7 7 7 7 8 9 10 11 12 12 11 9 1 2 7 5 6 2 3 6 5 5 4 3 3 6 4 6 3 4 4 3 5 5 5 5 6 6 6 6 5
9 8 8 8 8 7 8 8 8 9 10 11 12 12 11 3 3 3 2 6 5 2 1 1 2 3 4 2 1 2 5 5 3 3 3 6 3 2 9 1 6 15 8 5 6
9 8 8 8 8 8 8 9 9 10 11 11 12 12 11 1 4 2 2 5 6 3 1 2 3 4 4 2 1 2 2 4 4 4 3 3 4 5 1 8 6 11 17 8 10
9 9 8 8 8 8 8 9 10 10 11 11 13 13 1 4 4 3 2 7 5 3 3 2 5 2 3 1 2 2 3 2 2 2 4 3 4 3 4 7 9 11 3 5 6
9 8 8 7 7 8 8 10 11 11 11 11 12 12 2 2 2 4 3 1 2 2 1 1 2 1 2 2 4 1 2 4 6 2 1 3 3 4 9 6 9 10 6 6 7
10 10 9 8 8 9 10 10 10 11 10 8 8 3 2 6 3 6 4 1 2 2 1 2 4 3 3 2 4 3 3 6 7 6 2 1 5 8 8 7 9 10 8 8 7
12 11 11 10 10 10 11 11 11 10 8 5 4 1 5 5 4 6 1 3 2 3 1 2 3 4 3 1 7 5 7 5 6 6 5 4 5 9 18 8 6 11 10 10 6
12 11 12 11 11 12 13 12 12 7 3 2 1 3 7 9 4 5 3 2 5 1 3 4 6 4 6 5 6 8 3 3 4 5 1 7 5 10 14 10 4 8 11 9 7
14 12 12 12 12 12 16 7 4 3 2 2 1 4 4 4 6 5 1 1 3 5 7 8 6 4 5 5 4 2 4 2 3 7 11 7 6 13 16 8 6 13 11 9 8
16 14 12 12 12 11 7 2 7 5 4 3 3 4 4 6 2 3 2 2 4 7 4 4 6 2 2 4 5 7 5 2 1 3 9 4 5 12 13 12 12 12 10 9 8
17 16 14 12 13 10 2 6 0 3 6 4 4 5 4 1 3 4 2 3 4 3 3 7 2 2 6 6 8 5 5 2 3 5 9 1 8 6 10 6 6 12 11 8 6
18 16 14 13 11 3 1 2 2 3 2 7 4 3 3 6 3 4 2 2 3 5 4 5 2 4 6 3 7 3 5 2 2 4 4 4 5 6 5 7 10 9 5 5 6
19 16 15 16 4 3 2 4 5 4 5 5 1 3 3 2 3 2 2 3 5 2 2 3 4 5 3 4 4 2 2 2 2 3 3 2 3 2 1 4 4 3 4 5 5
20 16 12 8 2 2 4 7 0 5 5 3 2 0 1 5 2 4 3 5 2 2 6 4 3 3 4 1 3 3 2 3 3 4 3 3 5 4 4 3 5 6 4 4 3
20 14 8 1 2 4 6 4 5 7 1 4 2 1 3 3 2 2 3 7 2 5 4 1 3 2 3 3 4 4 3 6 5 3 3 1 4 4 6 8 4 4 6 3 2
22 14 2 1 1 5 4 5 7 4 3 6 3 3 1 2 3 2 2 5 2 3 2 5 4 5 3 3 4 6 7 5 6 6 5 2 2 8 5 6 7 8 4 2 3
24 7 2 2 5 5 5 7 3 2 2 3 5 3 4 6 3 1 3 3 5 5 3 4 4 4 7 3 2 3 5 7 4 3 5 4 5 5 2 2 3 7 5 2 4
16 3 3 6 4 3 7 6 4 1 3 4 2 6 5 5 2 4 3 2 2 2 4 3 1 4 5 2 3 1 2 2 6 2 2 4 6 3 3 2 4 5 2 2 4
3 3 3 9 3 6 7 2 2 3 2 3 3 2 4 5 5 4 3 2 2 4 1 3 2 2 4 1 6 4 4 3 4 2 4 4 4 4 4 6 3 3 4 4 5
4 4 4 8 4 7 4 2 3 4 4 4 2 3 2 3 3 2 0 3 4 3 5 3 3 4 2 6 2 5 4 6 4 4 3 3 6 2 8 7 9 7 5 6 5
3 3 5 4 6 2 2 3 4 4 5 4 4 3 2 2 3 4 1 4 8 2 4 2 5 0 2 6 2 4 4 5 6 4 1 4 9 3 3 3 3 2 3 4 4
3 3 5 4 4 3 6 4 2 6 4 3 2 2 1 2 1 2 3 2 7 4 3 3 3 4 6 7 4 6 3 4 5 4 5 4 7 1 2 3 2 1 5 5 5
4 5 6 7 1 3 3 3 6 6 1 4 3 4 3 3 4 1 2 5 4 4 7 7 3 7 7 6 3 2 1 2 5 4 3 7 7 5 3 1 4 6 7 7 7
5 0 3 4 4 3 2 2 3 4 2 3 4 3 2 2 2 1 1 1 4 4 4 5 3 3 3 4 2 3 4 5 6 6 6 6 4 3 3 4 6 7 7 7 9
3 3 4 1 3 2 3 2 2 5 2 2 5 1 1 4 5 6 3 2 3 3 3 3 3 1 3 3 1 4 6 8 5 5 6 2 4 2 3 5 7 9 7 9 11
2 1 4 2 4 2 2 2 3 4 4 2 6 4 1 3 5 2 4 2 1 6 3 3 5 3 4 3 5 5 3 3 4 0 0 3 5 3 5 8 8 9 8 10 11
Wind_Direction
334 336 338 336 335 333 330 324 321 316 313 312 315 316 318 319 312 154 294 218 185 205 311 306 68 351 52 62 41 119 63 142 184 155 152 44 134 340 308 89 53 5 78 101 75
334 334 335 335 331 328 325 322 318 315 313 313 311 311 312 320 298 323 243 184 193 171 18 24 1 7 55 68 30 82 87 216 225 182 168 114 130 142 86 48 56 49 36 72 117
336 333 333 332 328 324 321 318 315 313 313 311 309 311 311 302 36 289 280 190 188 145 74 61 69 52 68 42 113 172 162 198 209 233 112 125 87 83 118 276 187 161 158 155 150
336 333 330 327 323 319 315 313 311 309 306 307 307 311 318 269 105 290 36 137 143 119 59 56 36 46 75 52 327 96 141 174 195 162 116 104 124 100 209 218 166 169 158 157 170
339 334 330 324 318 313 307 303 300 299 301 309 315 322 14 26 258 344 352 140 151 164 34 96 57 93 69 24 109 120 146 143 85 136 104 119 77 133 303 357 100 130 138 142 100
344 336 328 318 310 303 298 294 294 296 301 312 315 316 35 51 249 9 328 319 237 139 61 319 58 162 102 51 94 20 99 58 21 344 20 114 96 94 344 39 91 125 97 59 65
350 339 329 317 308 303 298 293 288 289 295 311 320 350 56 228 340 344 297 239 222 201 343 218 139 93 130 20 333 89 100 39 23 316 356 13 40 80 344 19 123 124 108 91 78
352 340 330 321 312 307 301 293 286 285 296 298 310 17 260 272 306 321 265 335 171 237 217 166 145 102 48 37 24 50 54 62 318 357 347 90 249 4 349 12 145 140 125 114 129
352 339 331 323 315 310 302 292 280 277 237 297 18 70 291 316 349 303 179 285 299 155 42 99 66 75 23 69 19 9 92 35 348 31 329 53 352 340 338 338 165 106 109 123 89
351 340 330 322 317 315 308 282 124 123 115 206 301 39 315 299 292 298 215 332 2 348 18 38 48 68 40 69 197 132 108 52 70 358 40 58 360 340 350 358 124 118 105 93 89
349 340 329 323 316 325 344 24 20 352 34 201 200 206 266 276 275 298 295 55 39 49 28 354 69 162 119 181 142 108 97 124 210 56 78 65 42 6 353 32 80 88 87 88 81
345 338 330 321 316 323 343 73 174 177 320 248 237 267 268 245 333 307 118 66 54 33 356 19 41 120 90 105 104 95 109 7 324 30 90 31 38 3 21 15 56 96 96 89 85
345 337 328 319 314 7 56 77 5 177 116 299 199 196 221 141 233 281 108 106 79 39 26 120 290 138 111 95 82 45 118 153 199 28 63 125 35 7 2 38 65 59 83 84 110
344 338 332 321 48 299 359 335 314 167 64 299 325 296 128 140 310 260 89 124 26 60 91 65 333 97 81 81 108 102 223 178 219 93 214 100 248 339 335 65 52 84 117 135 120
342 337 334 359 180 51 298 329 162 59 62 289 305 2 22 129 247 353 23 42 87 29 78 275 22 45 60 343 115 175 87 42 20 97 94 338 82 249 182 210 208 207 190 173 155
338 336 327 305 49 260 314 327 52 43 69 351 342 38 76 22 349 341 52 47 95 74 22 347 294 57 136 59 53 104 81 51 58 84 41 226 111 245 188 198 213 212 209 167 93
337 332 196 358 292 313 331 47 40 99 329 339 334 9 96 325 311 194 81 25 91 57 3 356 0 330 78 82 29 67 47 347 353 9 222 165 67 243 221 208 199 199 147 90 37
333 331 226 264 296 336 49 51 88 339 348 335 1 36 80 359 331 2 77 104 43 85 104 134 322 17 340 61 170 45 134 151 253 228 262 271 247 256 252 172 107 94 115 84 359
324 354 36 321 326 44 68 64 192 227 292 356 4 53 353 1 29 66 44 113 61 58 151 127 316 320 52 14 89 155 57 170 104 26 53 260 306 350 30 82 113 114 103 317 314
34 22 331 321 357 58 73 198 251 229 356 62 79 44 21 336 34 52 8 340 100 44 135 192 96 10 309 53 41 98 142 35 10 241 271 290 278 243 309 263 259 203 242 285 295
43 51 273 337 56 47 104 239 305 315 29 48 116 60 61 16 359 339 172 30 12 30 69 109 88 289 26 23 347 360 29 53 112 121 196 303 269 216 273 277 250 206 226 252 305
41 50 311 11 50 25 67 310 300 319 6 42 89 92 99 29 9 6 61 359 335 15 55 4 123 137 81 315 256 102 129 106 106 273 134 154 263 327 298 342 121 177 277 289 263
50 280 320 58 82 356 318 322 336 353 334 2 108 76 106 65 337 49 99 356 6 66 122 173 26 29 0 353 353 80 106 108 98 69 216 151 269 42 18 37 45 9 313 293 270
51 8 337 38 44 93 15 331 331 333 294 53 49 69 81 58 39 50 58 4 6 77 78 84 115 154 188 214 166 285 187 131 131 116 229 236 284 251 219 264 321 307 289 274 272
30 348 173 325 350 12 326 296 341 323 15 55 24 61 142 154 61 91 3 42 33 4 50 89 174 190 256 245 206 235 249 179 187 212 181 261 253 299 226 266 269 266 283 279 269
79 50 359 309 307 344 10 22 308 323 323 288 148 132 92 160 194 197 167 215 214 33 73 24 190 140 277 349 83 276 286 291 242 218 235 277 282 219 256 260 269 264 278 275 267
319 18 105 315 343 16 246 315 277 360 257 265 158 118 127 233 196 223 203 114 38 162 136 99 125 90 272 5 344 334 231 250 277 123 195 239 245 271 281 274 268 280 278 275 271